Flag for U.S.A. Weather past 2 weeks in Hollywood, Florida, U.S.A.

Now
85 °F

Passing clouds.


Feels Like: 93 °F
Forecast: 76 / 89 °F
Wind: 6 mph from Northwest

Location: Fort Lauderdale / Hollywood International Airport

Current Time: Oct 2, 2014 at 11:01:55 AM

Latest Report: Oct 2, 2014 at 9:53 AM


Visibility: 10 mi

Pressure: 30.03 "Hg

Humidity: 72%

Dew point: 75 °F

Location of HollywoodLocation

Historic Weather in Hollywood — Graph

°F

Hollywood temperature yesterday

Maximum temperature yesterday: 92 °F (at 12:53 PM)
Minimum temperature yesterday: 80 °F (at 1:53 AM)
Average temperature yesterday: 84 °F

Past Weeks' High & Low Weather Summary

 TemperatureHumidityPressure
High92 °F (Oct 1, 12:53 PM)100% (Sep 20, 4:53 PM)30.05 "Hg (Sep 20, 4:53 PM)
Low73 °F (Sep 23, 9:53 AM)49% (Sep 17, 2:53 PM)29.81 "Hg (Sep 30, 5:53 PM)
Average81 °F79%29.94 "Hg
* Reported Sep 17 9:53 AM — Oct 2 9:53 AM, Hollywood, Weather by CustomWeather, © 2014

Note: Actual official high and low records may vary slightly from our data, if they occured in-between our weather recording intervals... More about our weather records

Advertising

Hollywood weather history for previous 24 hours

 ConditionsComfort  
Time TempWeatherWind HumidityBarometerVisibility
9:53 AM
Oct 2
85 °FPassing clouds.6 mph72%30.03 "Hg10 mi
8:53 AM83 °FPassing clouds.7 mph77%30.02 "Hg10 mi
7:53 AM81 °FPassing clouds.6 mph85%30.00 "Hg10 mi
6:53 AM80 °FPassing clouds.3 mph87%29.98 "Hg10 mi
5:53 AM80 °FPassing clouds.6 mph87%29.96 "Hg10 mi
4:53 AM80 °FPassing clouds.5 mph87%29.94 "Hg10 mi
3:53 AM80 °FPassing clouds.5 mph87%29.94 "Hg10 mi
2:53 AM81 °FPassing clouds.5 mph85%29.94 "Hg10 mi
1:53 AM81 °FPassing clouds.5 mph85%29.96 "Hg10 mi
12:53 AM82 °FPassing clouds.3 mph82%29.97 "Hg10 mi
11:53 PM
Oct 1
82 °FPassing clouds.5 mph77%29.98 "Hg10 mi
10:53 PM82 °FPassing clouds.3 mph77%29.98 "Hg10 mi
9:53 PM83 °FMostly cloudy.6 mph77%29.97 "Hg10 mi
8:53 PM82 °FThunderstorms. Mostly cloudy.7 mph79%29.93 "Hg10 mi
7:53 PM85 °FPartly sunny.6 mph72%29.92 "Hg10 mi
6:53 PM86 °FPartly sunny.No wind72%29.90 "Hg10 mi
5:53 PM85 °FLight rain. Partly sunny.6 mph72%29.88 "Hg10 mi
4:53 PM91 °FPartly sunny.5 mph56%29.88 "Hg10 mi
3:53 PM92 °FBroken clouds.5 mph54%29.88 "Hg10 mi
2:53 PM92 °FBroken clouds.6 mph58%29.89 "Hg10 mi
12:53 PM92 °FBroken clouds.10 mph51%29.93 "Hg10 mi
11:53 AM89 °FBroken clouds.14 mph61%29.94 "Hg10 mi
Weather by CustomWeather, © 2014

See weather overviewHow to use our weather pages